Location: Lanusei
(39.8830°N, 9.5330°E)
Time: 08:55:16
(UTC+02:00)

ISS - Visible Passes

Search period start: 08 May 2021 00:00
Search period end: 18 May 2021 00:00
Orbit: 418 x 421 km, 51.6° (Epoch: 08 May)

Date Brightness Start Highest point End Pass type
(mag) Time Alt. Az. Time Alt. Az. Time Alt. Az.
08 May -0.7 02:49:25 16° N 02:49:25 16° N 02:50:44 10° NNE visible
08 May -0.6 04:25:04 10° NNW 04:26:13 11° N 04:27:21 10° NNE visible
09 May -0.2 02:03:26 10° NNE 02:03:26 10° NNE 02:03:30 10° NNE visible
09 May -0.6 03:37:15 10° NNW 03:38:29 12° N 03:39:43 10° NNE visible
09 May -0.8 05:14:15 10° NNW 05:16:25 16° NNE 05:18:34 10° ENE visible
10 May -0.6 02:50:23 12° NNW 02:50:46 13° N 02:52:19 10° NNE visible
10 May -0.7 04:27:00 10° NNW 04:28:44 13° NNE 04:30:28 10° NE visible
11 May -0.3 02:04:21 12° N 02:04:21 12° N 02:05:03 10° NNE visible
11 May -0.5 03:39:40 10° NNW 03:41:01 12° N 03:42:23 10° NNE visible
11 May -1.4 05:15:48 10° NW 05:18:44 26° NNE 05:21:39 10° E visible
12 May -0.4 02:52:09 10° NNW 02:53:18 11° N 02:54:27 10° NNE visible
12 May -0.9 04:28:33 10° NNW 04:31:08 20° NNE 04:33:43 10° ENE visible
13 May -0.4 02:05:02 11° NNW 02:05:34 11° N 02:06:48 10° NNE visible
13 May -0.6 03:41:19 10° NNW 03:43:30 16° NNE 03:45:40 10° ENE visible
13 May -3.2 05:17:29 10° NW 05:20:50 63° NE 05:24:11 10° ESE visible
14 May -0.3 01:18:39 12° N 01:18:39 12° N 01:19:23 10° NNE visible
14 May -0.4 02:54:04 10° NNW 02:55:48 13° NNE 02:57:32 10° NE visible
14 May -2.2 04:30:09 10° NW 04:33:21 39° NNE 04:36:32 10° ESE visible
14 May -2.2 21:13:51 10° S 21:16:10 18° SE 21:18:30 10° E visible
14 May -2.9 22:49:26 10° WSW 22:52:43 50° NNW 22:55:40 12° NE visible
15 May -0.5 00:28:12 10° NW 00:30:09 14° NNW 00:32:06 10° NNE visible
15 May -0.3 02:06:45 10° NNW 02:08:06 12° N 02:09:27 10° NNE visible
15 May -1.5 03:42:52 10° NW 03:45:48 27° NNE 03:48:43 10° E visible
15 May -3.3 05:19:30 10° WNW 05:22:42 41° SW 05:25:53 10° SSE visible
15 May -3.8 22:01:54 10° SW 22:05:15 84° NW 22:08:37 10° NE visible
15 May -0.8 23:40:06 10° WNW 23:42:28 18° NNW 23:44:52 10° NNE visible
16 May -0.2 01:19:14 10° NNW 01:20:22 11° N 01:21:30 10° NNE visible
16 May -1.0 02:55:37 10° NNW 02:58:12 20° NNE 03:00:47 10° ENE visible
16 May -3.9 04:31:57 10° NW 04:35:19 74° SW 04:38:40 10° SE visible
16 May -3.7 21:14:35 10° SW 21:17:51 54° SE 21:21:09 10° ENE visible
16 May -1.2 22:52:06 10° W 22:54:52 23° NNW 22:57:37 10° NNE visible
17 May -0.2 00:31:24 10° NNW 00:32:38 11° N 00:33:50 10° NNE visible
17 May -0.7 02:08:23 10° NNW 02:10:33 16° NNE 02:12:44 10° ENE visible
17 May -3.4 03:45:05 14° NW 03:47:53 64° NE 03:51:14 10° ESE visible
17 May -1.9 05:22:32 10° W 05:24:19 14° SW 05:26:06 10° SSW visible
17 May -1.8 22:04:13 10° W 22:07:16 32° NNW 22:10:21 10° NE visible
17 May -0.4 23:43:22 10° NW 23:44:54 12° N 23:46:25 10° NNE visible
